Location: Cedar Brake
(32.2526°N, 97.8459°W)
Time: 17:08:43
(UTC+00:00)

CZ-2D R/B - Pass Details

Date: 22 April 2026
Orbit: 789 x 842 km, 98.9° (Epoch: 9 May)

Event Time Altitude Azimuth Distance (km) Brightness Sun altitude
Rises 10:44:00 0° 347° (NNW) 3,315 5.5 -14.8°
Reaches altitude 10° 10:47:54 10° 318° (NW) 2,391 4.4 -14.0°
Maximum altitude 10:49:49 12° 296° (WNW) 2,256 4.1 -13.7°
Enters shadow 10:50:51 11° 284° (WNW) 2,300 4.0 -13.5°
